Lapse_Rate
6.2 6.2 6.2 6.1 6.2 6.4 6.3 6.3 6.3 6.2 6.2 6.2 6.0 5.9 5.9 6.0 6.0 6.2 6.2 6.2 6.3 6.2 6.1 6.0 6.1 6.2 6.0 5.9 6.0 6.3 6.4 6.5 6.7 6.8 6.4 6.1 6.0 5.6 5.5 5.7 5.7 5.6 5.5
6.1 6.3 6.4 6.3 6.3 6.5 6.5 6.4 6.4 6.5 6.5 6.4 6.3 6.3 6.2 6.2 6.1 5.9 6.0 6.2 6.2 6.2 6.1 6.0 6.1 6.1 6.3 5.8 5.6 6.0 6.1 6.2 6.2 6.3 6.4 6.3 6.3 6.3 6.2 5.8 5.6 5.3 5.3
6.4 6.5 6.4 6.4 6.4 6.5 6.6 6.6 6.6 6.7 6.7 6.7 6.6 6.6 6.4 6.0 5.9 5.6 5.9 6.4 5.6 6.4 6.1 6.1 5.6 6.2 6.1 5.8 5.7 5.8 5.7 5.7 6.0 5.6 5.6 5.8 5.7 5.8 5.9 5.8 5.9 5.4 5.3
6.7 6.6 6.6 6.6 6.6 6.5 6.4 6.5 6.4 6.7 6.9 6.4 6.2 5.6 5.3 5.8 6.4 5.8 5.2 6.0 6.6 6.7 5.8 5.7 4.1 4.9 5.6 5.6 5.7 5.8 5.7 5.6 5.6 5.4 5.6 5.8 5.9 5.6 5.8 5.7 5.5 5.4 4.9
6.7 6.7 6.7 6.6 6.6 6.4 6.2 6.6 6.7 6.8 5.8 6.1 6.4 6.7 6.1 6.1 6.0 6.0 5.8 5.5 5.5 5.7 5.7 5.5 5.1 5.4 5.6 5.9 6.0 5.8 5.6 5.7 5.9 5.8 5.9 5.7 5.8 5.7 5.7 5.4 5.5 5.4 5.6
6.8 6.9 6.7 6.7 6.7 6.6 6.5 6.7 6.7 6.6 6.5 6.6 6.3 6.3 6.1 6.3 6.3 5.9 5.8 5.6 5.4 5.3 5.4 5.5 5.4 5.6 5.7 5.7 5.6 5.7 5.7 5.8 6.1 5.9 5.8 5.9 5.8 5.8 5.7 5.9 5.7 5.6 5.8
6.8 6.7 6.7 6.7 6.8 6.7 6.5 6.4 6.4 6.5 6.4 6.5 6.6 6.5 6.2 6.0 5.8 5.6 5.2 4.9 4.9 5.1 5.3 5.4 5.6 5.5 5.6 5.5 5.7 5.7 6.1 6.2 6.3 6.4 6.2 6.1 6.1 5.8 5.9 5.9 5.9 5.9 5.7
7.0 7.1 7.0 6.8 6.8 6.6 6.5 6.6 6.6 6.5 6.6 6.5 6.3 6.3 6.1 5.9 5.5 5.2 5.0 5.0 5.1 5.2 5.4 5.4 5.5 5.5 5.6 5.7 5.9 6.0 6.1 6.1 6.1 6.2 6.3 6.2 6.0 5.9 6.0 6.0 6.1 6.0 5.7
6.6 6.6 6.6 6.5 6.5 6.4 6.5 6.5 6.4 6.3 6.2 6.3 6.2 6.0 5.8 5.7 5.5 5.2 5.2 5.4 5.1 5.1 5.1 5.4 5.6 5.7 5.9 5.9 6.1 6.0 6.0 5.9 6.1 6.2 6.2 6.4 6.5 6.6 6.4 6.3 6.0 5.9 5.8
6.3 6.4 6.5 6.5 6.5 6.4 6.4 6.4 6.4 6.4 6.4 6.3 6.1 6.0 5.7 5.3 5.2 5.2 5.2 5.3 5.1 5.0 5.0 5.4 5.7 5.7 6.0 6.1 6.1 6.0 6.0 6.1 6.0 6.0 6.2 6.3 6.4 6.5 6.7 6.7 6.3 5.9 5.8
6.2 6.3 6.3 6.3 6.2 6.2 6.1 6.1 6.3 6.3 6.2 6.2 6.2 6.0 5.6 5.3 5.2 5.2 5.1 5.0 5.1 5.2 5.1 5.2 5.4 5.6 5.8 5.9 6.0 6.2 6.3 6.3 6.5 6.7 6.8 6.7 6.6 6.6 6.5 6.2 5.7 5.7 5.7
6.1 6.2 6.2 6.2 6.2 6.2 6.3 6.3 6.4 6.4 6.3 6.1 6.0 5.7 5.4 5.3 5.3 5.1 5.1 5.2 5.2 5.2 5.3 5.3 5.4 5.5 5.7 5.8 6.0 6.0 6.1 6.3 6.4 6.4 6.8 6.9 6.9 6.7 6.5 6.2 5.9 5.9 5.8
6.1 6.2 6.2 6.2 6.1 6.1 6.2 6.2 6.3 6.1 5.9 5.8 5.9 5.6 5.3 5.3 5.4 5.4 5.5 5.6 5.6 5.6 5.6 5.7 5.7 5.7 5.9 6.0 6.1 6.2 6.2 6.1 6.3 6.4 6.5 6.6 6.6 6.7 6.9 6.4 5.9 6.2 6.0
6.1 6.1 6.1 6.1 6.0 5.9 5.9 5.8 5.7 5.8 5.8 6.0 6.0 5.5 5.3 5.4 5.6 5.5 5.6 5.7 5.9 5.9 5.9 5.9 6.0 6.0 6.0 6.1 6.1 6.2 6.2 6.1 6.1 6.1 6.2 5.9 5.7 5.8 6.1 6.3 6.5 6.5 6.2
5.9 6.0 6.0 5.8 5.8 5.8 5.7 5.7 5.7 5.7 5.8 5.8 5.9 5.7 5.5 5.6 5.7 5.6 5.7 5.8 5.8 5.8 5.9 5.9 5.9 5.8 5.8 5.8 5.9 5.9 6.0 6.2 6.3 6.2 6.1 5.7 5.6 5.5 5.6 5.8 6.1 6.3 6.3
6.0 5.9 5.8 5.7 5.7 5.6 5.5 5.6 5.5 5.5 5.6 5.6 5.7 5.7 5.7 5.7 5.7 5.7 5.8 6.0 6.0 6.0 6.1 6.0 5.8 5.8 5.9 6.0 6.0 5.9 5.9 6.1 6.3 6.4 5.9 5.4 5.4 5.6 5.5 5.4 5.7 5.8 6.1
6.1 5.9 5.8 5.8 5.6 5.5 4.6 5.2 5.0 5.3 5.6 5.7 5.5 5.4 5.5 5.4 5.3 5.3 5.3 5.5 5.7 5.7 5.8 5.8 5.9 5.8 5.8 6.0 6.0 5.9 6.0 6.1 6.1 6.3 5.9 5.4 5.8 5.4 5.5 5.5 5.4 5.5 5.8
6.0 5.9 5.8 5.7 5.7 5.6 5.3 5.0 5.1 5.2 5.4 5.6 5.3 5.1 5.1 5.1 5.1 5.1 5.2 5.3 5.4 5.3 5.5 5.6 5.7 5.7 5.7 5.8 5.8 5.9 5.9 5.8 6.0 6.2 6.3 5.8 5.8 5.7 5.6 5.5 5.5 5.5 5.6
6.0 6.0 6.0 5.9 5.8 5.6 5.5 5.2 4.9 4.8 5.2 5.4 5.3 4.9 4.9 5.0 4.9 4.8 5.0 5.0 5.1 5.3 5.3 5.4 5.4 5.6 5.8 5.7 5.7 5.8 5.8 5.8 5.8 5.8 5.9 6.0 5.8 5.7 5.6 5.5 5.4 5.4 5.3
6.1 6.1 6.1 6.1 5.9 5.7 5.5 5.2 5.0 5.1 5.1 5.1 5.1 4.9 4.8 4.8 4.7 4.7 4.8 4.9 5.1 5.3 5.2 5.2 5.3 5.4 5.6 5.7 5.7 5.7 5.6 5.7 5.7 5.7 5.8 5.9 5.7 5.3 5.4 5.5 5.4 5.4 5.3
6.1 6.2 6.2 6.1 6.0 5.7 5.5 5.4 5.3 5.4 5.3 5.1 5.1 4.9 4.9 4.8 4.7 4.7 4.8 4.9 4.9 5.1 5.2 5.3 5.4 5.4 5.6 5.6 5.6 5.5 5.4 5.5 5.6 5.6 5.6 5.6 5.5 5.5 5.2 5.2 5.3 5.5 5.3
6.0 6.1 6.1 6.1 5.9 5.7 5.5 5.4 5.3 5.4 5.5 5.3 5.1 4.8 4.8 4.8 4.8 4.9 4.8 4.7 4.7 4.7 4.7 5.0 5.1 5.4 5.4 5.5 5.6 5.5 5.4 5.5 5.5 5.4 5.5 5.5 5.3 5.0 4.6 4.6 4.8 5.0 4.8
6.0 6.0 5.9 5.9 5.8 5.6 5.5 5.5 5.5 5.5 5.7 5.5 5.3 5.0 4.8 4.8 4.8 4.9 5.0 4.9 4.9 4.8 4.8 4.9 5.0 5.2 5.3 5.5 5.4 5.4 5.3 5.3 5.4 5.3 5.3 5.1 4.9 4.7 4.7 4.3 4.6 4.5 4.4
6.0 5.9 5.9 6.0 5.9 5.8 5.6 5.6 5.5 5.7 5.7 5.7 5.6 5.4 5.2 5.1 5.1 5.1 5.1 5.1 4.9 4.8 4.7 4.7 4.9 5.2 5.3 5.3 5.5 5.4 5.3 5.3 5.2 5.2 5.2 5.1 4.8 4.6 4.6 4.6 4.4 4.2 4.4
5.8 5.9 5.9 5.9 5.9 5.7 5.7 5.7 5.6 5.6 5.7 5.7 5.6 5.4 5.4 5.4 5.4 5.1 4.9 4.9 4.9 4.8 4.7 4.7 4.7 5.1 5.2 5.1 5.2 5.6 5.5 5.4 5.4 5.4 5.4 5.5 5.3 5.0 4.6 4.5 4.1 4.1 4.2
5.6 5.7 5.8 5.8 5.9 5.8 5.8 5.8 5.8 5.7 5.7 5.7 5.5 5.5 5.5 5.6 5.6 5.5 5.2 5.0 4.9 4.6 4.7 4.8 4.8 4.8 5.1 5.0 5.0 5.1 5.4 5.4 5.4 5.5 5.4 5.4 5.3 5.1 4.8 4.5 3.9 3.6 3.7
Wind_Speed
9 8 7 6 7 6 7 6 7 6 6 5 2 5 6 4 3 3 3 3 4 5 4 5 6 3 4 3 3 4 4 4 5 3 3 2 3 4 5 12 12 12 12
7 6 8 6 7 7 7 6 5 7 4 4 8 8 7 7 4 2 1 4 4 5 4 3 3 3 3 4 4 7 6 6 5 8 3 3 5 3 4 6 7 11 13
7 11 8 7 7 8 5 4 4 4 4 3 9 8 8 3 3 6 8 9 8 9 7 3 4 0 4 5 5 4 5 5 7 4 4 4 4 4 5 4 4 5 6
8 7 6 6 5 4 4 2 1 5 7 6 10 13 11 13 14 14 12 12 5 2 5 4 3 2 5 8 6 6 4 5 3 4 4 3 3 2 2 2 3 3 3
5 5 4 4 4 5 4 7 7 6 11 14 14 15 12 10 8 7 8 8 4 4 3 2 2 7 9 12 6 7 7 6 5 5 5 3 4 4 5 3 5 4 3
5 3 4 6 7 6 6 9 6 5 2 4 6 4 6 5 6 9 9 7 6 3 3 2 4 10 10 11 10 13 11 7 7 6 8 8 11 8 4 6 4 3 3
7 6 8 8 7 6 6 7 8 7 5 4 4 4 5 6 8 11 12 7 5 5 6 5 7 6 8 8 10 11 5 10 11 8 10 11 11 7 4 5 7 5 4
8 7 7 8 7 6 8 8 6 4 4 4 4 3 2 3 8 4 7 6 5 5 4 2 2 5 5 7 6 6 5 4 3 4 6 8 8 8 5 4 5 5 2
6 6 5 6 7 7 7 6 4 4 5 5 5 6 7 6 10 9 4 2 3 3 2 3 2 3 7 9 4 5 5 4 5 7 7 8 9 8 8 3 3 2 2
5 5 5 5 6 6 5 5 3 4 4 5 6 6 7 5 9 8 6 3 4 4 3 3 6 6 8 7 4 4 4 5 6 6 5 6 7 6 4 2 1 4 3
4 5 5 5 6 5 4 3 3 5 6 5 6 4 6 6 7 10 10 4 4 4 4 4 4 7 9 9 6 4 3 5 4 4 3 3 4 5 5 4 2 1 2
5 5 5 5 4 3 5 3 4 5 5 4 3 3 3 4 7 9 10 9 8 3 4 3 4 8 8 9 7 9 9 5 3 3 4 5 5 5 5 5 7 8 8
5 5 5 4 4 4 4 4 4 4 3 2 2 2 3 2 2 6 6 6 6 2 3 5 4 5 7 5 9 10 8 4 3 4 5 4 3 3 4 3 7 13 15
5 4 3 4 3 4 3 3 3 2 2 2 2 1 1 1 1 2 3 3 6 4 5 4 5 5 3 3 4 5 4 4 4 4 4 4 4 3 3 3 3 5 7
5 4 2 1 1 2 2 0 0 1 1 2 2 2 2 1 1 1 1 1 2 3 6 2 1 2 2 1 2 4 4 4 4 3 3 3 4 4 3 3 3 5 6
4 3 2 1 1 0 1 1 3 2 2 1 3 2 2 1 3 0 2 5 7 6 0 2 3 3 3 3 3 3 3 4 3 3 3 3 3 3 5 4 5 7 7
4 3 2 2 2 1 1 1 2 2 4 4 4 2 1 2 3 2 5 7 6 4 0 1 1 2 3 3 3 3 2 1 1 2 3 3 3 4 4 3 4 4 4
4 4 2 2 1 1 1 2 2 1 1 1 6 4 5 6 5 4 6 5 2 2 1 1 1 1 2 3 3 3 2 0 1 1 2 3 4 4 3 5 3 4 2
4 3 2 1 0 0 0 1 2 2 2 2 1 2 5 6 5 6 5 3 2 3 2 2 1 1 1 1 2 2 2 0 0 1 2 2 3 3 3 3 3 3 4
3 4 4 2 2 1 0 1 0 1 1 2 2 1 2 2 2 2 2 2 3 4 4 4 2 1 1 1 0 1 2 1 1 1 1 3 3 3 4 3 3 3 2
3 3 2 2 3 2 2 2 2 2 2 3 3 3 7 4 4 3 2 3 3 4 4 3 2 2 1 1 1 2 1 1 1 2 3 3 3 3 3 3 3 3 4
3 3 2 2 1 3 3 2 2 3 3 4 4 2 2 4 3 2 3 3 2 2 3 2 2 3 2 1 2 3 2 2 2 3 3 3 4 3 3 4 4 3 3
4 3 2 1 1 2 3 2 2 3 3 4 4 4 3 4 4 4 4 3 2 1 1 2 2 2 2 1 2 3 2 2 2 3 4 4 4 4 4 4 3 4 4
4 4 3 2 1 0 2 3 3 4 4 5 4 4 4 4 4 5 5 3 2 2 3 3 3 3 1 3 2 1 2 3 4 5 6 5 5 5 4 4 4 5 5
4 4 3 3 3 3 2 3 3 3 3 4 4 3 3 3 4 5 5 3 3 2 3 3 4 4 4 5 2 0 2 4 6 8 7 6 7 7 5 5 4 4 5
5 4 3 3 3 3 4 4 4 3 3 4 4 3 3 4 5 5 5 4 5 4 4 4 4 5 6 5 3 3 3 6 8 7 6 6 6 5 5 6 7 4 4
Wind_Direction
207 209 205 198 208 209 205 215 223 229 225 229 218 84 78 75 38 29 353 323 272 269 257 257 277 270 283 257 242 229 218 182 242 277 246 262 228 220 211 213 221 225 232
207 211 220 195 185 207 218 212 207 227 219 221 98 113 120 108 107 81 279 234 250 257 235 224 270 315 316 281 232 229 231 206 205 241 241 242 237 230 235 215 216 221 217
186 216 213 218 188 205 210 215 218 234 234 89 128 128 115 119 260 257 238 255 237 228 227 232 226 347 340 302 288 270 235 224 209 215 238 226 233 202 209 202 196 212 220
198 209 206 210 195 191 186 176 325 59 62 74 130 144 173 199 215 229 243 262 299 290 251 194 262 309 264 280 282 280 250 240 220 217 236 242 243 295 287 233 244 220 181
182 194 203 178 151 124 80 86 99 108 121 154 180 184 202 222 242 251 259 278 303 243 220 264 275 260 271 272 274 268 229 232 234 235 245 242 243 236 236 224 236 208 185
93 107 105 92 87 91 104 101 113 135 121 130 171 184 252 255 277 275 277 290 288 262 299 315 279 342 290 281 282 265 238 229 237 233 249 249 261 261 253 227 214 191 213
79 69 82 95 101 92 97 92 86 82 97 102 92 173 230 258 276 272 274 279 297 314 319 338 344 312 325 311 299 282 288 236 240 257 260 266 279 276 245 242 229 219 213
74 75 85 93 94 87 78 76 74 75 70 60 59 73 95 21 343 282 280 290 299 309 319 336 324 315 10 347 332 334 322 311 302 256 250 273 278 275 226 229 229 230 78
70 73 79 94 93 87 80 80 78 79 62 59 56 64 72 37 21 19 22 5 6 5 5 55 12 356 350 343 350 350 348 351 325 284 282 299 312 289 245 195 200 164 195
89 92 87 87 89 87 94 90 74 71 90 81 64 53 66 67 36 27 21 21 17 12 49 46 40 8 342 346 352 353 339 337 334 346 3 8 8 11 23 246 270 216 219
116 102 94 88 95 99 90 74 103 107 114 99 85 66 60 33 28 24 18 38 26 20 14 15 27 10 19 2 351 351 319 312 342 356 25 16 19 18 18 16 16 270 243
117 98 98 87 83 83 86 73 75 87 91 94 105 82 59 54 36 29 24 25 7 25 22 10 14 6 356 1 7 347 345 339 0 15 18 27 28 36 28 27 33 44 46
113 98 93 94 84 71 85 85 84 101 110 97 91 64 39 32 38 31 25 16 11 13 351 332 346 358 352 360 2 1 5 11 31 38 31 19 29 36 21 27 50 62 53
121 110 97 93 83 75 70 75 100 114 123 113 110 92 37 16 32 24 24 13 6 7 351 324 311 303 305 338 0 10 20 20 35 64 47 35 36 31 39 22 66 65 73
134 129 113 99 100 100 101 238 156 112 133 168 204 180 185 235 206 157 68 357 352 330 310 287 342 338 17 28 26 30 36 42 56 50 78 66 64 75 56 31 38 62 74
134 140 173 254 338 214 237 231 142 124 122 317 270 230 188 145 174 122 331 321 314 304 302 7 354 353 17 18 6 23 41 34 27 39 68 71 78 77 74 53 74 85 88
150 162 147 95 109 277 247 202 253 157 186 217 228 185 52 166 181 294 307 316 280 290 132 9 332 347 354 6 16 24 31 30 360 58 85 85 87 86 83 71 74 74 76
153 165 146 127 163 252 255 224 227 199 201 251 223 210 187 192 191 245 290 295 261 226 251 273 331 328 358 10 17 15 30 40 3 94 95 108 100 99 103 111 87 99 95
159 166 177 182 181 217 158 331 258 212 209 250 178 157 201 218 212 245 275 261 292 296 297 268 246 304 358 11 15 22 350 7 183 145 113 110 110 111 124 116 111 106 112
180 179 171 186 203 209 273 356 186 197 255 263 264 252 173 180 238 240 227 247 265 270 280 277 274 262 296 266 24 35 352 351 104 114 138 145 142 142 149 147 136 122 103
177 173 206 196 200 198 209 210 202 194 239 258 272 242 214 219 239 235 287 278 272 270 258 253 245 238 245 218 206 245 289 323 300 151 153 162 161 143 140 123 129 119 130
171 172 161 156 202 220 229 231 201 200 242 264 267 255 247 233 250 255 275 286 296 253 243 224 225 224 242 227 211 234 214 224 212 178 160 156 154 138 146 149 139 132 134
164 177 189 197 234 229 225 218 216 243 257 269 261 252 236 238 227 225 244 253 271 271 240 226 237 243 239 224 231 244 251 224 228 182 165 163 168 162 162 161 148 150 154
167 184 203 226 258 234 183 192 228 246 264 279 266 244 241 236 226 230 247 255 265 258 251 240 240 262 219 216 222 214 261 233 188 177 175 168 170 168 165 159 167 178 173
184 200 211 226 235 238 251 227 229 245 266 272 249 230 239 230 228 231 235 244 236 226 239 251 239 245 231 225 211 309 271 201 176 171 167 171 179 177 172 165 155 167 166
195 207 218 228 244 256 251 234 231 233 241 253 244 231 237 244 247 239 227 219 223 226 231 239 236 236 223 218 199 164 140 140 150 168 156 161 169 170 172 170 163 163 168